Regional Weather Roundup
Issued by NWS

Home | Current Version | Previous Version | Text Only | Print | Product List | Glossary Off
Versions: 1 2 3 4 5 6 7 8 9 10 11 12 13 14 15 16 17 18 19 20 21 22 23 24 25 26 27 28 29 30 31 32 33 34 35 36 37 38 39 40 41 42 43 44 45 46 47 48 49 50

000
ASUS43 KOAX 231210
RWRNE

WEATHER ROUNDUP FOR NEBRASKA
NATIONAL WEATHER SERVICE OMAHA NE
700 AM CDT SAT SEP 23 2017

NOTES: SATELLITE DATA IS BEING USED TO AUGMENT CLOUD COVER ABOVE
       12000 FEET.
       "FAIR" INDICATES FEW OR NO CLOUDS BELOW 12,000 FEET WITH NO
       SIGNIFICANT WEATHER AND/OR OBSTRUCTIONS TO VISIBILITY.


NEZ001>004-019>022-054>056-231300-
NEBRASKA PANHANDLE

CITY           SKY/WX    TMP DP  RH WIND       PRES   REMARKS
SCOTTSBLUFF    MOCLDY    45  38  76 NW8       30.03R
6HR MIN TEMP:  45; 6HR MAX TEMP:  50; 6HR PCP: TRACE;

ALLIANCE       CLOUDY    44  40  85 N12G21    30.00R
6HR MIN TEMP:  44; 6HR MAX TEMP:  47; 6HR PCP: TRACE;

CHADRON        CLOUDY    45  38  76 NE12      30.04R
6HR MIN TEMP:  45; 6HR MAX TEMP:  48;

GORDON         CLOUDY    45  42  89 N10       30.00F
6HR MIN TEMP:  45; 6HR MAX TEMP:  46;

KIMBALL        CLOUDY    44  41  88 N9        30.00R
SIDNEY         CLOUDY    47  39  74 N13       29.98R
6HR MIN TEMP:  45; 6HR MAX TEMP:  51;

$$

NEZ057>060-069>072-079>082-231300-
SOUTHWEST NEBRASKA

CITY           SKY/WX    TMP DP  RH WIND       PRES   REMARKS
NORTH PLATTE   TSTM      52  49  89 E12G17    29.92S
6HR MIN TEMP:  52; 6HR MAX TEMP:  58; 6HR PCP:  0.10;

IMPERIAL       CLOUDY    52  48  86 N10       29.91R
6HR MIN TEMP:  51; 6HR MAX TEMP:  62; 6HR PCP: TRACE;

LEXINGTON      CLOUDY    61  54  77 E10       29.90S
MCCOOK         MOCLDY    69  65  86 E8        29.86R
6HR MIN TEMP:  68; 6HR MAX TEMP:  79;

OGALLALA       CLOUDY    50  47  90 NE12      29.94R
$$

NEZ005>010-023>029-035>040-094-231300-
NORTH CENTRAL NEBRASKA

CITY           SKY/WX    TMP DP  RH WIND       PRES   REMARKS
VALENTINE      LGT RAIN  49  47  93 NE12      29.99S
6HR MIN TEMP:  49; 6HR MAX TEMP:  53; 6HR PCP:  0.04;

AINSWORTH      RAIN      48  48 100 N10       29.99F
BROKEN BOW     CLOUDY    54  49  83 NE9       29.94R
6HR MIN TEMP:  54; 6HR MAX TEMP:  62;

O`NEILL        CLOUDY    53  52  98 NE9       29.96F
ORD            CLOUDY    56  51  84 NE8       29.93S
6HR MIN TEMP:  56; 6HR MAX TEMP:  64;

THEDFORD       CLOUDY    48  47  95 NE9       29.98R THUNDER
$$

NEZ041-046>049-061>064-073>077-083>087-231300-
SOUTH CENTRAL NEBRASKA

CITY           SKY/WX    TMP DP  RH WIND       PRES   REMARKS
GRAND ISLAND   CLEAR     70  67  90 CALM      29.91R
6HR MIN TEMP:  69; 6HR MAX TEMP:  77;

AURORA         PTCLDY    69  67  93 S7        29.91R
HASTINGS       CLEAR     72  65  78 S8        29.91R
6HR MIN TEMP:  72; 6HR MAX TEMP:  78;

HEBRON         CLEAR     71  67  85 S9        29.91S
HOLDREGE       CLEAR     70  64  82 CALM      29.90R
KEARNEY        PTCLDY    68  65  90 N5        29.92R
YORK           PTCLDY    68  68 100 SE6       29.92S
$$

NEZ011>018-030>034-042>045-231300-
NORTHEAST NEBRASKA

CITY           SKY/WX    TMP DP  RH WIND       PRES   REMARKS
NORFOLK        MOCLDY    58  57  97 N9        29.92F
6HR MIN TEMP:  58; 6HR MAX TEMP:  77;

ALBION         CLOUDY    59  56  91 N7        29.95R
BLAIR          CLEAR     71  67  88 S7        29.95R
COLUMBUS       PTCLDY    72  67  84 S6        29.92R
FREMONT        PTCLDY    70  66  87 SE9       29.93S
TEKAMAH        MOCLDY    68  66  93 SE3       29.93R
6HR MIN TEMP:  68; 6HR MAX TEMP:  77;

WAYNE          CLOUDY    60  58  91 N5        29.94S
$$

NEZ050>053-065>068-078-088>093-231300-
SOUTHEAST NEBRASKA

CITY           SKY/WX    TMP DP  RH WIND       PRES   REMARKS
LINCOLN        CLEAR     70  66  87 S8        29.93R
6HR MIN TEMP:  70; 6HR MAX TEMP:  77;

OMAHA EPPLEY   MOCLDY    73  67  81 S12       29.94R
6HR MIN TEMP:  72; 6HR MAX TEMP:  79;

BEATRICE       CLEAR     72  67  85 S7        29.94R
FALLS CITY     CLEAR     67  65  93 SE3       29.95R
6HR MIN TEMP:  67; 6HR MAX TEMP:  76;

NEBRASKA CITY  CLEAR     69  69 100 S7        29.96R
PLATTSMOUTH    CLEAR     69  68  98 SE6       29.96R
$$

NEZ044-045-051>053-067-231300-
OMAHA AREA

CITY           SKY/WX    TMP DP  RH WIND       PRES   REMARKS
OMAHA EPPLEY   MOCLDY    73  67  81 S12       29.94R
6HR MIN TEMP:  72; 6HR MAX TEMP:  79;

BLAIR          CLEAR     71  67  88 S7        29.95R
FREMONT        PTCLDY    70  66  87 SE9       29.93S
MILLARD        CLEAR     72  68  87 E3        29.94
OFFUTT AFB     CLEAR     70  67  90 SE8       29.94R
PLATTSMOUTH    CLEAR     69  68  98 SE6       29.96R
WAHOO          FAIR      68  67  96 SE7       29.93S
$$




USA.gov is the U.S. government's official web portal to all federal, state and local government web resources and services.